Terminal Aerodrome Forecast
Issued by NWS Bismarck, ND

Home | Current Version | Previous Version | Graphics & Text | Print | Product List | Glossary On
Versions: 1 2 3 4 5 6 7 8 9 10 11 12 13 14 15 16 17 18 19
000
FTUS43 KBIS 271343 AAB
TAFBIS
TAF AMD
KBIS 271343Z 2714/2812 VRB03KT P6SM FEW300
     FM271800 16011KT P6SM SCT200
     FM280000 15009KT P6SM BKN120
     FM280300 13011KT P6SM VCTS OVC060CB
      TEMPO 2804/2807 5SM -TSRA OVC035CB
     FM280800 12008KT P6SM BKN025 OVC045=

USA.gov is the U.S. government's official web portal to all federal, state and local government web resources and services.